"Period start","avg(HW err(1)/warn(2) (#))","avg(Visibility (m))","avg(Weather code (#))","avg(Precip intensity (mm/h))","min(HW err(1)/warn(2) (#))","max(HW err(1)/warn(2) (#))","std(HW err(1)/warn(2) (#))","med(HW err(1)/warn(2) (#))","min(Visibility (m))","max(Visibility (m))","std(Visibility (m))","med(Visibility (m))","min(Weather code (#))","max(Weather code (#))","std(Weather code (#))","med(Weather code (#))","min(Precip intensity (mm/h))","max(Precip intensity (mm/h))","std(Precip intensity (mm/h))","med(Precip intensity (mm/h))"
2013-09-02 00:00:00,2,26743,0,0.00,2,2,0,2,22446,29922,2192,26588,0,0,0,0,0.00,0.00,0.00,0.00
2013-09-02 00:10:00,2,26660,0,0.00,2,2,0,2,23406,30833,2295,26425,0,0,0,0,0.00,0.00,0.00,0.00
2013-09-02 00:20:00,2,26250,0,0.00,2,2,0,2,22334,34503,3489,24910,0,0,0,0,0.00,0.00,0.00,0.00
2013-09-02 00:30:00,2,32097,0,0.00,2,2,0,2,23637,43784,6154,31648,0,0,0,0,0.00,0.00,0.00,0.00
2013-09-02 00:40:00,2,30073,0,0.00,2,2,0,2,21040,36468,5343,30716,0,0,0,0,0.00,0.00,0.00,0.00
2013-09-02 00:50:00,2,29039,0,0.00,2,2,0,2,24484,34896,3207,27665,0,0,0,0,0.00,0.00,0.00,0.00
2013-09-02 01:00:00,2,28578,0,0.00,2,2,0,2,23899,34467,3159,27936,0,0,0,0,0.00,0.00,0.00,0.00
2013-09-02 01:10:00,2,24471,0,0.00,2,2,0,2,20254,29183,2576,24231,0,0,0,0,0.00,0.00,0.00,0.00
2013-09-02 01:20:00,2,26621,0,0.00,2,2,0,2,22420,28821,2302,27474,0,0,0,0,0.00,0.00,0.00,0.00
2013-09-02 01:30:00,2,26864,0,0.00,2,2,0,2,22043,33911,3977,26215,0,0,0,0,0.00,0.00,0.00,0.00
2013-09-02 01:40:00,1,25665,0,0.00,0,2,1,2,21555,30089,2691,24984,0,0,0,0,0.00,0.00,0.00,0.00
2013-09-02 01:50:00,0,28693,0,0.00,0,0,0,0,23969,34986,3169,28250,0,0,0,0,0.00,0.00,0.00,0.00
2013-09-02 02:00:00,0,30642,0,0.00,0,0,0,0,23385,41321,5697,28899,0,0,0,0,0.00,0.00,0.00,0.00
2013-09-02 02:10:00,0,28863,0,0.00,0,0,0,0,22535,36622,4681,28768,0,0,0,0,0.00,0.00,0.00,0.00
2013-09-02 02:20:00,0,31032,0,0.00,0,0,0,0,22486,40212,5856,31836,0,0,0,0,0.00,0.00,0.00,0.00
2013-09-02 02:30:00,0,31186,0,0.00,0,0,0,0,25400,40286,4549,31234,0,0,0,0,0.00,0.00,0.00,0.00
2013-09-02 02:40:00,0,32075,0,0.00,0,0,0,0,20931,39970,5893,34612,0,0,0,0,0.00,0.00,0.00,0.00
2013-09-02 02:50:00,0,28245,0,0.00,0,0,0,0,23727,35014,3588,27156,0,0,0,0,0.00,0.00,0.00,0.00
2013-09-02 03:00:00,0,30344,0,0.00,0,0,0,0,25234,34107,2827,30650,0,0,0,0,0.00,0.00,0.00,0.00
2013-09-02 03:10:00,1,35282,0,0.00,0,2,1,2,28494,43246,3621,35578,0,0,0,0,0.00,0.00,0.00,0.00
2013-09-02 03:20:00,1,28860,0,0.00,0,2,1,2,24943,36009,3322,27500,0,0,0,0,0.00,0.00,0.00,0.00
2013-09-02 03:30:00,2,24971,33,0.36,0,2,1,2,19418,27196,2159,25824,0,61,28,41,0.00,2.40,0.72,0.03
2013-09-02 03:40:00,2,22971,59,1.10,2,2,0,2,18662,25188,2053,23570,51,61,4,61,0.05,3.25,0.85,1.00
2013-09-02 03:50:00,2,17518,52,1.02,2,2,0,2,12149,23576,3757,16307,51,52,0,52,0.10,2.15,0.63,0.73
2013-09-02 04:00:00,2,12930,56,2.30,2,2,0,2,10388,14325,1191,13166,52,61,4,56,1.15,3.90,0.91,2.40
2013-09-02 04:10:00,2,13274,61,3.29,2,2,0,2,11349,15417,1418,13044,61,61,0,61,1.70,7.00,1.80,2.73
2013-09-02 04:20:00,2,16698,61,0.91,2,2,0,2,12547,21118,2627,16112,61,61,0,61,0.05,2.80,0.74,0.70
2013-09-02 04:30:00,2,19846,51,0.29,2,2,0,2,15810,26111,2785,19656,51,51,0,51,0.05,0.55,0.16,0.23
2013-09-02 04:40:00,2,22748,56,0.06,2,2,0,2,19182,25829,2288,22402,51,61,5,56,0.00,0.15,0.05,0.05
2013-09-02 04:50:00,2,27141,12,0.00,2,2,0,2,22311,30356,2397,27994,0,61,24,0,0.00,0.00,0.00,0.00
2013-09-02 05:00:00,2,27017,0,0.00,2,2,0,2,21853,32590,3440,25488,0,0,0,0,0.00,0.00,0.00,0.00
2013-09-02 05:10:00,2,27386,0,0.00,2,2,0,2,21420,34501,3964,26399,0,0,0,0,0.00,0.00,0.00,0.00
2013-09-02 05:20:00,2,33144,0,0.00,2,2,0,2,24941,46657,7212,31350,0,0,0,0,0.00,0.00,0.00,0.00
2013-09-02 05:30:00,2,32674,0,0.00,0,2,1,2,26696,37988,3674,33108,0,0,0,0,0.00,0.00,0.00,0.00
2013-09-02 05:40:00,1,35244,0,0.00,0,2,1,0,30541,41958,3750,34470,0,0,0,0,0.00,0.00,0.00,0.00
2013-09-02 05:50:00,0,29798,0,0.00,0,0,0,0,25715,34436,2771,28989,0,0,0,0,0.00,0.00,0.00,0.00
2013-09-02 06:00:00,0,38191,0,0.00,0,0,0,0,30323,42913,3691,37690,0,0,0,0,0.00,0.00,0.00,0.00
2013-09-02 06:10:00,0,37663,0,0.00,0,0,0,0,26890,49812,6663,38478,0,0,0,0,0.00,0.00,0.00,0.00
2013-09-02 06:20:00,0,40168,0,0.00,0,0,0,0,32897,47886,4372,40239,0,0,0,0,0.00,0.00,0.00,0.00
2013-09-02 06:30:00,0,39637,0,0.00,0,0,0,0,32827,49175,4686,40123,0,0,0,0,0.00,0.00,0.00,0.00
2013-09-02 06:40:00,0,35163,0,0.00,0,0,0,0,27236,43171,4911,35190,0,0,0,0,0.00,0.00,0.00,0.00
2013-09-02 06:50:00,0,29568,0,0.00,0,0,0,0,24263,36105,3522,28986,0,0,0,0,0.00,0.00,0.00,0.00
2013-09-02 07:00:00,0,36391,0,0.00,0,0,0,0,31749,41395,3358,35357,0,0,0,0,0.00,0.00,0.00,0.00
2013-09-02 07:10:00,0,37355,0,0.00,0,0,0,0,32905,44026,3095,36518,0,0,0,0,0.00,0.00,0.00,0.00
2013-09-02 07:20:00,0,35015,0,0.00,0,0,0,0,29443,39388,3649,36496,0,0,0,0,0.00,0.00,0.00,0.00
2013-09-02 07:30:00,0,36619,0,0.00,0,0,0,0,32566,41711,2446,36469,0,0,0,0,0.00,0.00,0.00,0.00
2013-09-02 07:40:00,0,35214,0,0.00,0,0,0,0,28020,39567,3292,35717,0,0,0,0,0.00,0.00,0.00,0.00
2013-09-02 07:50:00,0,33400,0,0.00,0,0,0,0,23839,40244,5300,35156,0,0,0,0,0.00,0.00,0.00,0.00
2013-09-02 08:00:00,0,37024,0,0.00,0,0,0,0,30510,41465,2872,37524,0,0,0,0,0.00,0.00,0.00,0.00
2013-09-02 08:10:00,0,32767,0,0.00,0,0,0,0,24986,44259,4866,33324,0,0,0,0,0.00,0.00,0.00,0.00
2013-09-02 08:20:00,0,29077,0,0.00,0,0,0,0,26198,35116,2668,28528,0,0,0,0,0.00,0.00,0.00,0.00
2013-09-02 08:30:00,0,34249,0,0.00,0,0,0,0,25163,44631,5825,35152,0,0,0,0,0.00,0.00,0.00,0.00
2013-09-02 08:40:00,1,31691,0,0.00,0,2,1,0,25953,38419,3234,32067,0,0,0,0,0.00,0.00,0.00,0.00
2013-09-02 08:50:00,2,25228,0,0.00,2,2,0,2,17586,29447,4213,26530,0,0,0,0,0.00,0.00,0.00,0.00
2013-09-02 09:00:00,2,24187,0,0.00,2,2,0,2,19030,32049,4327,22868,0,0,0,0,0.00,0.00,0.00,0.00
2013-09-02 09:10:00,2,24132,45,0.13,2,2,0,2,18709,29793,3316,24219,0,61,23,51,0.00,0.45,0.16,0.08
2013-09-02 09:20:00,2,30976,8,0.00,2,2,0,2,23122,34119,3320,32071,0,41,16,0,0.00,0.00,0.00,0.00
2013-09-02 09:30:00,2,33882,0,0.00,2,2,0,2,30828,40273,2809,33434,0,0,0,0,0.00,0.00,0.00,0.00
2013-09-02 09:40:00,2,33758,0,0.00,2,2,0,2,28343,39202,3054,34230,0,0,0,0,0.00,0.00,0.00,0.00
2013-09-02 09:50:00,2,42538,0,0.00,2,2,0,2,37413,46204,3111,42568,0,0,0,0,0.00,0.00,0.00,0.00
2013-09-02 10:00:00,2,44214,0,0.00,2,2,0,2,34897,50000,4912,43648,0,0,0,0,0.00,0.00,0.00,0.00
2013-09-02 10:10:00,2,45905,0,0.00,2,2,0,2,40248,50000,3442,46500,0,0,0,0,0.00,0.00,0.00,0.00
2013-09-02 10:20:00,2,42648,0,0.00,2,2,0,2,32249,50000,5027,42274,0,0,0,0,0.00,0.00,0.00,0.00
2013-09-02 10:30:00,2,36183,0,0.00,2,2,0,2,33376,38811,1737,36144,0,0,0,0,0.00,0.00,0.00,0.00
2013-09-02 10:40:00,2,31902,0,0.00,2,2,0,2,24959,38318,4320,33094,0,0,0,0,0.00,0.00,0.00,0.00
2013-09-02 10:50:00,2,30131,0,0.00,2,2,0,2,28314,32842,1660,29571,0,0,0,0,0.00,0.00,0.00,0.00
2013-09-02 11:00:00,2,36603,0,0.00,2,2,0,2,34092,40414,1748,36559,0,0,0,0,0.00,0.00,0.00,0.00
2013-09-02 11:10:00,2,36153,0,0.00,2,2,0,2,32349,39536,2495,36031,0,0,0,0,0.00,0.00,0.00,0.00
2013-09-02 11:20:00,2,41106,0,0.00,2,2,0,2,35479,49573,4802,40755,0,0,0,0,0.00,0.00,0.00,0.00
2013-09-02 11:30:00,2,39338,0,0.00,2,2,0,2,33722,43049,3325,41033,0,0,0,0,0.00,0.00,0.00,0.00
2013-09-02 11:40:00,2,42251,0,0.00,2,2,0,2,34647,50000,4860,43143,0,0,0,0,0.00,0.00,0.00,0.00
2013-09-02 11:50:00,2,41258,0,0.00,2,2,0,2,37388,45694,2498,41168,0,0,0,0,0.00,0.00,0.00,0.00
2013-09-02 12:00:00,2,37468,0,0.00,2,2,0,2,33903,42164,2515,37230,0,0,0,0,0.00,0.00,0.00,0.00
2013-09-02 12:10:00,2,39973,0,0.00,2,2,0,2,32774,47794,5058,37779,0,0,0,0,0.00,0.00,0.00,0.00
2013-09-02 12:20:00,2,39413,0,0.00,2,2,0,2,32670,45722,4407,40127,0,0,0,0,0.00,0.00,0.00,0.00
2013-09-02 12:30:00,2,43114,0,0.00,2,2,0,2,35206,50000,4240,43936,0,0,0,0,0.00,0.00,0.00,0.00
2013-09-02 12:40:00,2,45153,0,0.00,2,2,0,2,41601,49173,2465,44746,0,0,0,0,0.00,0.00,0.00,0.00
2013-09-02 12:50:00,2,49395,0,0.00,2,2,0,2,46457,50000,1134,50000,0,0,0,0,0.00,0.00,0.00,0.00
2013-09-02 13:00:00,2,49467,0,0.00,2,2,0,2,46429,50000,1140,50000,0,0,0,0,0.00,0.00,0.00,0.00
2013-09-02 13:10:00,2,48779,0,0.00,2,2,0,2,45147,50000,1711,50000,0,0,0,0,0.00,0.00,0.00,0.00
2013-09-02 13:20:00,2,39185,0,0.00,2,2,0,2,27651,50000,8641,40776,0,0,0,0,0.00,0.00,0.00,0.00
2013-09-02 13:30:00,2,37912,48,0.49,2,2,0,2,23595,49741,7706,38489,0,61,17,52,0.00,1.55,0.52,0.35
2013-09-02 13:40:00,2,42160,28,0.08,2,2,0,2,31330,50000,6183,44584,0,61,28,26,0.00,0.60,0.19,0.00
2013-09-02 13:50:00,2,22314,52,1.73,2,2,0,2,14343,31745,5014,22434,52,52,0,52,0.90,2.95,0.56,1.68
2013-09-02 14:00:00,2,21670,52,2.12,2,2,0,2,13097,30397,6307,20961,52,52,0,52,0.60,3.90,1.11,1.62
2013-09-02 14:10:00,2,42297,39,0.21,2,2,0,2,27077,50000,8310,46368,0,52,20,51,0.00,0.70,0.25,0.12
2013-09-02 14:20:00,2,49193,0,0.00,2,2,0,2,44574,50000,1676,50000,0,0,0,0,0.00,0.00,0.00,0.00
2013-09-02 14:30:00,2,48581,0,0.00,2,2,0,2,42039,50000,2395,49732,0,0,0,0,0.00,0.00,0.00,0.00
2013-09-02 14:40:00,2,46400,0,0.00,2,2,0,2,42730,50000,2214,46157,0,0,0,0,0.00,0.00,0.00,0.00
2013-09-02 14:50:00,2,49925,0,0.00,2,2,0,2,49514,50000,154,50000,0,0,0,0,0.00,0.00,0.00,0.00
2013-09-02 15:00:00,2,49963,0,0.00,2,2,0,2,49631,50000,111,50000,0,0,0,0,0.00,0.00,0.00,0.00
2013-09-02 15:10:00,2,45084,0,0.00,2,2,0,2,38587,50000,3338,45394,0,0,0,0,0.00,0.00,0.00,0.00
2013-09-02 15:20:00,2,47652,0,0.00,2,2,0,2,43018,50000,2486,48394,0,0,0,0,0.00,0.00,0.00,0.00
2013-09-02 15:30:00,2,45728,0,0.00,2,2,0,2,39730,49606,3302,45142,0,0,0,0,0.00,0.00,0.00,0.00
2013-09-02 15:40:00,2,48909,0,0.00,2,2,0,2,43067,50000,2183,50000,0,0,0,0,0.00,0.00,0.00,0.00
2013-09-02 15:50:00,2,48004,0,0.00,2,2,0,2,44201,50000,2485,50000,0,0,0,0,0.00,0.00,0.00,0.00
2013-09-02 16:00:00,2,46756,0,0.00,2,2,0,2,40093,50000,3500,48490,0,0,0,0,0.00,0.00,0.00,0.00
2013-09-02 16:10:00,2,48593,0,0.00,2,2,0,2,43608,50000,1950,49493,0,0,0,0,0.00,0.00,0.00,0.00
2013-09-02 16:20:00,2,47334,0,0.00,2,2,0,2,43739,50000,2143,46900,0,0,0,0,0.00,0.00,0.00,0.00
2013-09-02 16:30:00,2,47643,0,0.00,2,2,0,2,42514,50000,2404,48364,0,0,0,0,0.00,0.00,0.00,0.00
2013-09-02 16:40:00,2,45978,0,0.00,2,2,0,2,41965,50000,2792,45823,0,0,0,0,0.00,0.00,0.00,0.00
2013-09-02 16:50:00,2,47761,0,0.00,2,2,0,2,41771,50000,2556,48234,0,0,0,0,0.00,0.00,0.00,0.00
2013-09-02 17:00:00,2,48389,0,0.00,2,2,0,2,45773,50000,1494,48174,0,0,0,0,0.00,0.00,0.00,0.00
2013-09-02 17:10:00,2,47031,0,0.00,2,2,0,2,40618,50000,3236,48132,0,0,0,0,0.00,0.00,0.00,0.00
2013-09-02 17:20:00,2,47739,0,0.00,2,2,0,2,39419,50000,3150,48768,0,0,0,0,0.00,0.00,0.00,0.00
2013-09-02 17:30:00,2,49161,0,0.00,2,2,0,2,47089,50000,1090,49926,0,0,0,0,0.00,0.00,0.00,0.00
2013-09-02 17:40:00,2,46272,0,0.00,2,2,0,2,42251,50000,2759,46042,0,0,0,0,0.00,0.00,0.00,0.00
2013-09-02 17:50:00,2,44701,0,0.00,2,2,0,2,38329,49041,3356,45470,0,0,0,0,0.00,0.00,0.00,0.00
2013-09-02 18:00:00,2,38686,0,0.00,2,2,0,2,36048,42082,1826,38882,0,0,0,0,0.00,0.00,0.00,0.00
2013-09-02 18:10:00,2,45447,0,0.00,2,2,0,2,39028,50000,3960,47123,0,0,0,0,0.00,0.00,0.00,0.00
2013-09-02 18:20:00,2,45217,0,0.00,2,2,0,2,37927,50000,3879,45976,0,0,0,0,0.00,0.00,0.00,0.00
2013-09-02 18:30:00,2,43264,0,0.00,2,2,0,2,38923,47159,2845,43928,0,0,0,0,0.00,0.00,0.00,0.00
2013-09-02 18:40:00,2,43856,0,0.00,2,2,0,2,36845,49834,3589,44076,0,0,0,0,0.00,0.00,0.00,0.00
2013-09-02 18:50:00,2,46024,0,0.00,2,2,0,2,40016,50000,2736,46086,0,0,0,0,0.00,0.00,0.00,0.00
2013-09-02 19:00:00,2,47310,0,0.00,2,2,0,2,44027,50000,2047,47656,0,0,0,0,0.00,0.00,0.00,0.00
2013-09-02 19:10:00,2,45798,0,0.00,2,2,0,2,40703,50000,3145,46517,0,0,0,0,0.00,0.00,0.00,0.00
2013-09-02 19:20:00,2,46016,0,0.00,2,2,0,2,41519,50000,2634,45927,0,0,0,0,0.00,0.00,0.00,0.00
2013-09-02 19:30:00,2,41177,0,0.00,2,2,0,2,35596,46887,3350,40392,0,0,0,0,0.00,0.00,0.00,0.00
2013-09-02 19:40:00,2,43895,0,0.00,2,2,0,2,36875,50000,4316,44874,0,0,0,0,0.00,0.00,0.00,0.00
2013-09-02 19:50:00,2,45731,0,0.00,2,2,0,2,41031,50000,3057,46381,0,0,0,0,0.00,0.00,0.00,0.00
2013-09-02 20:00:00,2,45108,0,0.00,2,2,0,2,41698,50000,2806,45160,0,0,0,0,0.00,0.00,0.00,0.00
2013-09-02 20:10:00,2,44866,0,0.00,2,2,0,2,41831,50000,3010,43274,0,0,0,0,0.00,0.00,0.00,0.00
2013-09-02 20:20:00,2,47691,0,0.00,2,2,0,2,44468,50000,1708,47372,0,0,0,0,0.00,0.00,0.00,0.00
2013-09-02 20:30:00,2,47818,0,0.00,2,2,0,2,43368,50000,2133,48475,0,0,0,0,0.00,0.00,0.00,0.00
2013-09-02 20:40:00,2,48767,0,0.00,2,2,0,2,46177,50000,1427,49444,0,0,0,0,0.00,0.00,0.00,0.00
2013-09-02 20:50:00,2,44203,0,0.00,2,2,0,2,39012,50000,3496,43532,0,0,0,0,0.00,0.00,0.00,0.00
2013-09-02 21:00:00,2,46405,0,0.00,2,2,0,2,34174,50000,5230,49513,0,0,0,0,0.00,0.00,0.00,0.00
2013-09-02 21:10:00,2,48162,0,0.00,2,2,0,2,45478,50000,1728,48164,0,0,0,0,0.00,0.00,0.00,0.00
2013-09-02 21:20:00,2,45360,0,0.00,2,2,0,2,41429,50000,2786,45568,0,0,0,0,0.00,0.00,0.00,0.00
2013-09-02 21:30:00,2,46686,0,0.00,2,2,0,2,39915,50000,4177,50000,0,0,0,0,0.00,0.00,0.00,0.00
2013-09-02 21:40:00,2,45024,0,0.00,2,2,0,2,38284,50000,4503,46830,0,0,0,0,0.00,0.00,0.00,0.00
2013-09-02 21:50:00,2,47952,0,0.00,2,2,0,2,42592,50000,2533,49522,0,0,0,0,0.00,0.00,0.00,0.00
2013-09-02 22:00:00,2,47181,0,0.00,2,2,0,2,43811,50000,2448,46406,0,0,0,0,0.00,0.00,0.00,0.00
2013-09-02 22:10:00,2,46265,0,0.00,2,2,0,2,41804,50000,2938,45826,0,0,0,0,0.00,0.00,0.00,0.00
2013-09-02 22:20:00,2,46954,0,0.00,2,2,0,2,41672,50000,2635,47449,0,0,0,0,0.00,0.00,0.00,0.00
2013-09-02 22:30:00,2,48942,0,0.00,2,2,0,2,45203,50000,1866,50000,0,0,0,0,0.00,0.00,0.00,0.00
2013-09-02 22:40:00,2,47900,0,0.00,2,2,0,2,42594,50000,2250,48916,0,0,0,0,0.00,0.00,0.00,0.00
2013-09-02 22:50:00,2,47241,0,0.00,2,2,0,2,42810,50000,2365,48586,0,0,0,0,0.00,0.00,0.00,0.00
2013-09-02 23:00:00,2,47549,0,0.00,2,2,0,2,41652,50000,2502,47631,0,0,0,0,0.00,0.00,0.00,0.00
2013-09-02 23:10:00,2,48055,0,0.00,2,2,0,2,43862,50000,1970,48320,0,0,0,0,0.00,0.00,0.00,0.00
2013-09-02 23:20:00,2,30684,38,0.40,2,2,0,2,19592,44398,8233,28088,0,61,25,51,0.00,1.05,0.40,0.30
2013-09-02 23:30:00,2,16011,52,0.98,2,2,0,2,14487,20046,1611,15550,52,52,0,52,0.45,1.60,0.36,0.95
2013-09-02 23:40:00,2,17190,52,0.97,2,2,0,2,15118,19347,1411,17020,52,52,0,52,0.65,1.35,0.25,1.05
2013-09-02 23:50:00,2,20868,52,0.86,2,2,0,2,16237,26746,2547,20728,52,52,0,52,0.45,1.30,0.27,0.85
